Location: Lussas
(44.6119°N, 4.4726°E)
Time: 05:50:19
(UTC+00:00)

COSMO-SKYMED 1 - Pass Details

Date: 26 November 2020
Orbit: 621 x 623 km, 97.9° (Epoch: 18 January)

Event Time Altitude Azimuth Distance (km) Brightness Sun altitude
Rises 04:04:47 0° 139° (SE) 2,893 6.6 -29.5°
Reaches altitude 10° 04:07:08 10° 129° (SE) 1,991 5.8 -29.0°
Maximum altitude 04:10:56 30° 68° (ENE) 1,114 4.3 -28.4°
Enters shadow 04:13:38 16° 16° (NNE) 1,625 4.8 -27.9°
